Weather History for Crane Lake, MN

Change the Weather History Date:

Friday, September 6, 2013

  Actual Average Record
Temperature  
Mean Temperature 68 °F -  
Max Temperature 84 °F 70 °F 86 °F (1996)
Min Temperature 51 °F 49 °F 37 °F (2010)
Cooling Degree Days 2    
Growing Degree Days 18 (Base 50)    
Moisture  
Dew Point 62 °F    
Average Humidity 80    
Maximum Humidity 100    
Minimum Humidity 58    
Precipitation  
Precipitation 0.00 in - - ()
Sea Level Pressure  
Sea Level Pressure 29.96 in    
Wind  
Wind Speed 2 mph (South)    
Max Wind Speed 6 mph    
Max Gust Speed -    
Visibility 9 miles    
Events Rain , Thunderstorm    
Averages and records for this station are not official NWS values.
T = Trace of Precipitation, MM = Missing Value Source: NWS Daily Summary

Daily Weather History Graph

Daily Weather History Graph

Search for Another Location

Airport:

Trip Planner

Search our weather history database for the weather conditions in past years. The results will help you decide how hot, cold, wet, or windy it might be!

Date:

Astronomy

Sep. 06, 2013 Rise Set
Actual Time 6:34 AM CDT 7:40 PM CDT
Civil Twilight 6:02 AM CDT 8:12 PM CDT
Nautical Twilight 5:24 AM CDT 8:50 PM CDT
Astronomical Twilight 4:43 AM CDT 9:31 PM CDT
Moon 7:57 AM CDT (9/6) 7:52 PM CDT (9/6)
Length of Visible Light 14h 09m
Length of Day
13h 05m
New Moon, 2% of the Moon is Illuminated
Sep 6
New Moon
Sep 12
First Quarter
Sep 19
Full
Sep 26
Last Quarter
Oct 4
New

Hourly Weather History & Observations

Time (CDT) Temp. Heat Index Dew Point Humidity Pressure Visibility Wind Dir Wind Speed Gust Speed Precip Events Conditions
12:10 AM 51.8 °F - 48.2 °F 88% 30.08 in 10.0 mi Calm Calm - N/A   Clear
12:30 AM 51.8 °F - 50.0 °F 94% 30.08 in 10.0 mi South 3.5 mph - N/A   Clear
12:50 AM 53.6 °F - 51.8 °F 94% 30.07 in 10.0 mi Calm Calm - N/A   Clear
1:10 AM 55.4 °F - 53.6 °F 94% 30.07 in 10.0 mi South 3.5 mph - N/A   Clear
1:30 AM 55.4 °F - 53.6 °F 94% 30.06 in 10.0 mi South 4.6 mph - N/A   Clear
1:50 AM 57.2 °F - 53.6 °F 88% 30.06 in 10.0 mi Calm Calm - N/A   Clear
2:10 AM 57.2 °F - 53.6 °F 88% 30.06 in 10.0 mi South 4.6 mph - N/A   Clear
2:30 AM 59.0 °F - 53.6 °F 82% 30.06 in 10.0 mi South 4.6 mph - N/A   Clear
2:50 AM 59.0 °F - 53.6 °F 82% 30.06 in 10.0 mi South 3.5 mph - N/A   Clear
3:10 AM 59.0 °F - 53.6 °F 82% 30.05 in 10.0 mi South 4.6 mph - N/A   Clear
3:30 AM 60.8 °F - 55.4 °F 82% 30.04 in 10.0 mi South 4.6 mph - N/A   Clear
3:50 AM 60.8 °F - 55.4 °F 82% 30.03 in 10.0 mi South 4.6 mph - N/A   Clear
4:10 AM 60.8 °F - 55.4 °F 82% 30.03 in 10.0 mi South 4.6 mph - N/A   Clear
4:30 AM 60.8 °F - 55.4 °F 82% 30.04 in 10.0 mi Calm Calm - N/A   Clear
4:50 AM 60.8 °F - 55.4 °F 82% 30.03 in 10.0 mi South 3.5 mph - N/A   Clear
5:10 AM 60.8 °F - 55.4 °F 82% 30.02 in 10.0 mi South 4.6 mph - N/A   Clear
5:30 AM 60.8 °F - 57.2 °F 88% 30.01 in 10.0 mi South 5.8 mph - N/A   Clear
5:50 AM 60.8 °F - 57.2 °F 88% 30.01 in 10.0 mi South 5.8 mph - N/A   Clear
6:10 AM 60.8 °F - 57.2 °F 88% 29.99 in 10.0 mi South 5.8 mph - N/A   Clear
6:30 AM 60.8 °F - 57.2 °F 88% 30.00 in 10.0 mi SSE 3.5 mph - N/A   Clear
6:50 AM 60.8 °F - 57.2 °F 88% 29.99 in 10.0 mi SSE 3.5 mph - N/A   Clear
7:10 AM 60.8 °F - 57.2 °F 88% 29.99 in 10.0 mi South 3.5 mph - N/A   Clear
7:30 AM 60.8 °F - 57.2 °F 88% 29.99 in 10.0 mi South 3.5 mph - N/A   Clear
7:50 AM 60.8 °F - 59.0 °F 94% 29.99 in 10.0 mi Calm Calm - N/A   Clear
8:10 AM 60.8 °F - 60.8 °F 100% 29.98 in 10.0 mi South 3.5 mph - N/A   Clear
8:30 AM 62.6 °F - 60.8 °F 94% 29.99 in 10.0 mi Calm Calm - N/A   Clear
8:50 AM 66.2 °F - 64.4 °F 94% 29.99 in 10.0 mi Calm Calm - N/A   Scattered Clouds
9:10 AM 68.0 °F - 64.4 °F 88% 29.99 in 10.0 mi Calm Calm - N/A   Mostly Cloudy
9:30 AM 68.0 °F - 64.4 °F 88% 29.99 in 10.0 mi Calm Calm - N/A   Overcast
9:50 AM 69.8 °F - 64.4 °F 83% 29.98 in 10.0 mi Calm Calm - N/A   Overcast
10:10 AM 69.8 °F - 66.2 °F 88% 29.97 in 10.0 mi SSW 3.5 mph - N/A   Scattered Clouds
10:30 AM 73.4 °F - 66.2 °F 78% 29.97 in 10.0 mi SSW 5.8 mph - N/A   Clear
10:50 AM 75.2 °F - 66.2 °F 73% 29.96 in 10.0 mi SW 4.6 mph - N/A   Scattered Clouds
11:10 AM 75.2 °F - 66.2 °F 73% 29.96 in 10.0 mi South 5.8 mph - N/A   Scattered Clouds
11:30 AM 75.2 °F - 66.2 °F 73% 29.96 in 10.0 mi Calm Calm - N/A   Scattered Clouds
11:50 AM 77.0 °F - 66.2 °F 69% 29.95 in 10.0 mi SSW 4.6 mph - N/A   Clear
12:10 PM 78.8 °F - 66.2 °F 65% 29.94 in 10.0 mi South 5.8 mph - N/A   Clear
12:30 PM 78.8 °F - 66.2 °F 65% 29.93 in 10.0 mi SSE 4.6 mph - N/A   Clear
12:50 PM 80.6 °F 82.7 °F 66.2 °F 61% 29.93 in 10.0 mi West 3.5 mph - N/A   Clear
1:10 PM 82.4 °F 85.4 °F 68.0 °F 62% 29.92 in 10.0 mi Calm Calm - N/A   Clear
1:30 PM 82.4 °F 85.4 °F 68.0 °F 62% 29.91 in 10.0 mi South 4.6 mph - N/A   Clear
1:50 PM 84.2 °F 88.4 °F 69.8 °F 62% 29.91 in 10.0 mi Calm Calm - N/A   Scattered Clouds
2:10 PM 84.2 °F 87.3 °F 68.0 °F 58% 29.90 in 10.0 mi Calm Calm - N/A   Scattered Clouds
2:30 PM 82.4 °F 85.4 °F 68.0 °F 62% 29.90 in 10.0 mi Calm Calm - N/A   Mostly Cloudy
2:50 PM 82.4 °F 86.3 °F 69.8 °F 66% 29.90 in 10.0 mi Calm Calm - N/A   Overcast
3:10 PM 82.4 °F 85.4 °F 68.0 °F 62% 29.90 in 10.0 mi SSW 5.8 mph - N/A   Mostly Cloudy
3:30 PM 82.4 °F 86.3 °F 69.8 °F 66% 29.89 in 10.0 mi Calm Calm - N/A   Scattered Clouds
3:50 PM 82.4 °F 86.3 °F 69.8 °F 66% 29.89 in 10.0 mi SW 4.6 mph - N/A   Scattered Clouds
4:10 PM 84.2 °F 88.4 °F 69.8 °F 62% 29.88 in 10.0 mi Calm Calm - N/A   Clear
4:30 PM 82.4 °F 85.4 °F 68.0 °F 62% 29.88 in 10.0 mi SW 4.6 mph - N/A   Clear
4:50 PM 82.4 °F 86.3 °F 69.8 °F 66% 29.88 in 10.0 mi Calm Calm - N/A   Clear
5:10 PM 82.4 °F 85.4 °F 68.0 °F 62% 29.88 in 10.0 mi Calm Calm - N/A   Clear
5:30 PM 82.4 °F 86.3 °F 69.8 °F 66% 29.88 in 10.0 mi Calm Calm - N/A   Clear
5:50 PM 80.6 °F 82.7 °F 66.2 °F 61% 29.88 in 10.0 mi Calm Calm - N/A   Clear
6:10 PM 78.8 °F - 68.0 °F 69% 29.88 in 10.0 mi Calm Calm - N/A   Clear
6:30 PM 78.8 °F - 69.8 °F 74% 29.88 in 10.0 mi Calm Calm - N/A   Clear
6:50 PM 78.8 °F - 71.6 °F 78% 29.87 in 10.0 mi Calm Calm - N/A   Clear
7:10 PM 75.2 °F - 69.8 °F 83% 29.87 in 10.0 mi Calm Calm - N/A   Clear
7:30 PM 73.4 °F - 66.2 °F 78% 29.88 in 10.0 mi Calm Calm - N/A   Clear
7:50 PM 71.6 °F - 64.4 °F 78% 29.88 in 7.0 mi Calm Calm - N/A   Clear
8:10 PM 69.8 °F - 64.4 °F 83% 29.89 in 7.0 mi Calm Calm - N/A   Clear
8:30 PM 68.0 °F - 62.6 °F 83% 29.89 in 5.0 mi Calm Calm - N/A   Haze
8:50 PM 66.2 °F - 62.6 °F 88% 29.89 in 7.0 mi Calm Calm - N/A   Clear
9:10 PM 66.2 °F - 62.6 °F 88% 29.90 in 5.0 mi Calm Calm - N/A   Clear
9:30 PM 66.2 °F - 62.6 °F 88% 29.91 in 1.8 mi Calm Calm - N/A   Clear
9:50 PM 64.4 °F - 62.6 °F 94% 29.91 in 10.0 mi Calm Calm - N/A   Scattered Clouds
10:10 PM 64.4 °F - 60.8 °F 88% 29.91 in 7.0 mi Calm Calm - N/A   Clear
10:30 PM 64.4 °F - 60.8 °F 88% 29.91 in 5.0 mi Calm Calm - N/A Thunderstorm Clear
10:50 PM 66.2 °F - 62.6 °F 88% 29.92 in 5.0 mi Calm Calm - N/A   Scattered Clouds
11:10 PM 66.2 °F - 64.4 °F 94% 29.91 in 7.0 mi South 3.5 mph - N/A   Clear
11:30 PM 68.0 °F - 66.2 °F 94% 29.88 in 10.0 mi SSE 3.5 mph - N/A Rain Light Rain
11:50 PM 68.0 °F - 66.2 °F 94% 29.91 in 10.0 mi Calm Calm - N/A   Scattered Clouds